{"data":{"norad_id":82223,"intl_designator":"","name":"UNKNOWN","alt_names":[],"object_type":"UNKNOWN","status":"UNKNOWN","operator":null,"country":null,"launch_date":null,"launch_site_code":null,"launch_vehicle":null,"mission":null,"orbit_class":"UNKNOWN","rcs_meters":null,"size_class":null,"mass_kg":null,"dimensions":null,"purposes":[],"wikipedia_slug":null,"has_3d_model":false,"image_url":null,"decayed_at":null,"tle_current":{"epoch":"2026-09-15T22:39:40.491360Z","epoch_age_seconds":408141,"freshness":"STALE","line1":"1 82223U          26258.94421865  .00001388  00000+0  75348-3 0  9998","line2":"2 82223  99.3000 160.7060 0067954 293.3956  66.0078 14.13019922487927","mean_motion":14.13019922,"eccentricity":0.0067954,"inclination_deg":99.3,"raan_deg":160.706,"arg_perigee_deg":293.3956,"mean_anomaly_deg":66.0078,"bstar":0.00075348,"rev_number":48792,"period_min":101.90939119682,"perigee_km":799.94431244829,"apogee_km":898.16764679573,"semimajor_km":7227.192979622,"source":"CELESTRAK","updated_at":"2026-09-20T09:00:32.431998Z"}}}